Location: Newark
(28.4500°N, 16.2500°W)
Time: 02:16:46
(UTC+00:00)

JUGNU - Pass Details

Date: 30 October 2019
Orbit: 836 x 864 km, 20.0° (Epoch: 13 November)

Event Time Altitude Azimuth Distance (km) Brightness Sun altitude
Rises 19:08:57 0° 244° (WSW) 3,371 ? -10.9°
Reaches altitude 10° 19:11:44 10° 235° (SW) 2,440 ? -11.5°
Maximum altitude 19:16:54 32° 173° (S) 1,392 ? -12.7°
Enters shadow 19:21:22 13° 115° (ESE) 2,235 ? -13.6°
